DW7346 Weather Reports


Display with metric or nautical units.
time (UTC)temp
F
wind
direction
speed
MPH
gust
MPH
rain 1hr
in
rain 24hr
in
rain mn
in
humidity
%
barometer
mb
20260510064542 76 120 3.0 9.0 0.00 0.01 0.00 82 1006.9
20260510063020 76 79 1.0 4.0 0.00 0.01 0.00 80 1007.9
20260510061528 76 4 6.0 15.0 0.00 0.01 0.00 79 1009.4
20260510060025 77 13 5.0 16.0 0.00 0.01 0.00 76 1009.4
20260510054507 77 4 3.0 5.0 0.00 0.01 0.00 73 1008.0
20260510053005 77 143 1.0 7.0 0.00 0.01 0.00 72 1006.3
20260510051503 77 127 2.0 8.0 0.00 0.01 0.00 72 1006.3
20260510050110 77 129 1.0 6.0 0.00 0.01 0.00 72 1006.1
20260510044611 77 117 2.0 5.0 0.00 0.01 0.01 73 1005.9
20260510043059 77 98 2.0 6.0 0.00 0.01 0.01 72 1005.6
20260510041610 77 135 1.0 4.0 0.00 0.01 0.01 72 1005.7
20260510040058 77 113 1.0 4.0 0.00 0.01 0.01 71 1005.9
20260510034604 78 127 0.0 4.0 0.00 0.01 0.01 70 1006.0
20260510033059 77 131 1.0 5.0 0.00 0.01 0.01 70 1006.1
20260510031607 77 69 0.0 3.0 0.00 0.01 0.01 69 1006.3
20260510030104 78 67 0.0 2.0 0.00 0.01 0.01 68 1006.2
20260510024556 79 72 0.0 3.0 0.00 0.01 0.01 67 1006.1
20260510023055 79 64 1.0 4.0 0.00 0.01 0.01 65 1006.2
20260510021554 80 74 1.0 4.0 0.00 0.01 0.01 64 1006.0
20260510020054 80 66 1.0 5.0 0.00 0.01 0.01 64 1005.8
20260510014555 81 63 1.0 4.0 0.00 0.01 0.01 63 1005.6
20260510013055 82 58 0.0 5.0 0.00 0.01 0.01 63 1005.5
20260510011552 82 63 2.0 6.0 0.00 0.01 0.01 63 1005.2
20260510010052 83 66 2.0 6.0 0.00 0.01 0.01 63 1005.0
20260510004550 85 30 1.0 7.0 0.00 0.01 0.01 63 1004.9
20260510003057 86 61 2.0 7.0 0.00 0.01 0.01 63 1004.8
20260510001550 87 68 1.0 6.0 0.00 0.01 0.01 62 1004.9
20260510000050 88 100 1.0 6.0 0.00 0.01 0.01 62 1004.9
20260509234601 88 51 1.0 5.0 0.00 0.01 0.01 59 1004.9
20260509233054 89 75 1.0 5.0 0.00 0.01 0.01 57 1005.1
20260509231604 89 264 1.0 5.0 0.00 0.01 0.01 54 1005.1
20260509230045 90 236 0.0 3.0 0.00 0.01 0.01 50 1005.1
20260509224543 89 14 0.0 2.0 0.00 0.01 0.01 52 1005.1
20260509223043 88 49 2.0 7.0 0.00 0.01 0.01 54 1005.0
20260509221543 89 65 0.0 5.0 0.00 0.01 0.01 56 1005.1
20260509220042 89 1 1.0 5.0 0.00 0.01 0.01 52 1005.1
20260509214540 89 1 2.0 5.0 0.00 0.01 0.01 52 1005.2
20260509213039 89 127 2.0 6.0 0.00 0.01 0.01 51 1005.3
20260509211537 88 13 1.0 5.0 0.00 0.01 0.01 56 1005.6
20260509210039 89 65 1.0 6.0 0.00 0.01 0.01 55 1005.9
20260509204536 88 98 0.0 6.0 0.00 0.01 0.01 58 1006.0
20260509203039 88 7 1.0 5.0 0.00 0.01 0.01 59 1006.3
20260509201529 88 41 1.0 3.0 0.00 0.01 0.01 62 1006.4
20260509200028 87 338 0.0 3.0 0.00 0.01 0.01 67 1006.5
20260509194526 87 15 0.0 3.0 0.00 0.01 0.01 65 1006.8
20260509193025 87 176 1.0 4.0 0.00 0.01 0.01 63 1007.0
20260509191519 86 103 0.0 8.0 0.00 0.01 0.01 68 1007.0
20260509190019 85 214 1.0 5.0 0.00 0.01 0.01 65 1007.2
20260509184526 85 11 2.0 7.0 0.00 0.01 0.01 67 1007.3
20260509183024 85 263 1.0 5.0 0.00 0.01 0.01 68 1007.4
20260509181516 84 79 1.0 6.0 0.00 0.01 0.01 71 1007.5
20260509180016 84 31 1.0 5.0 0.00 0.01 0.01 73 1007.6
20260509174509 83 30 1.0 6.0 0.00 0.01 0.01 74 1007.8
20260509173014 84 1 0.0 8.0 0.00 0.01 0.01 71 1007.8
20260509171510 83 359 0.0 8.0 0.00 0.01 0.01 72 1008.0
20260509170003 82 47 1.0 5.0 0.00 0.01 0.01 71 1008.1
20260509164604 82 251 0.0 6.0 0.00 0.01 0.01 72 1008.2
20260509163105 81 321 2.0 6.0 0.00 0.01 0.01 72 1008.2
20260509161558 81 269 2.0 7.0 0.00 0.01 0.01 72 1008.2
20260509160054 80 1 2.0 8.0 0.00 0.01 0.01 73 1008.1
20260509154605 79 359 1.0 5.0 0.00 0.02 0.01 74 1008.0
20260509153049 79 311 1.0 5.0 0.00 0.02 0.01 74 1008.2
20260509151549 78 283 0.0 5.0 0.00 0.02 0.01 79 1008.3
20260509150050 77 340 1.0 4.0 0.00 0.02 0.01 80 1008.3
20260509144539 76 307 1.0 3.0 0.00 0.02 0.01 83 1008.2
20260509143046 74 285 2.0 5.0 0.00 0.02 0.01 84 1008.1
20260509141534 73 309 1.0 5.0 0.00 0.02 0.01 87 1008.2
20260509140029 72 335 1.0 5.0 0.00 0.02 0.01 88 1008.2
20260509134526 72 44 0.0 4.0 0.00 0.02 0.01 91 1008.2
20260509133023 70 310 2.0 5.0 0.00 0.02 0.01 93 1008.0
20260509131521 69 345 1.0 3.0 0.00 0.02 0.01 94 1008.0
20260509130023 69 360 1.0 5.0 0.00 0.02 0.01 95 1008.1
20260509124527 68 297 0.0 4.0 0.00 0.02 0.01 95 1008.1
20260509123021 68 262 1.0 4.0 0.00 0.02 0.01 95 1008.1
20260509121533 68 301 1.0 4.0 0.00 0.02 0.01 95 1008.0
20260509120019 67 300 1.0 5.0 0.00 0.02 0.01 95 1007.9
20260509114537 68 285 0.0 3.0 0.00 0.03 0.01 94 1007.8
20260509113018 68 286 0.0 4.0 0.00 0.03 0.01 94 1007.3
20260509111516 68 286 2.0 5.0 0.00 0.03 0.01 94 1006.8
20260509110016 68 299 1.0 5.0 0.00 0.03 0.01 94 1006.8
20260509104520 68 90 0.0 0.0 0.00 0.04 0.01 93 1006.4
20260509103012 68 55 0.0 0.0 0.00 0.04 0.01 93 1006.1
20260509101512 69 55 0.0 0.0 0.00 0.04 0.01 92 1006.1
20260509100012 69 55 0.0 1.0 0.00 0.04 0.01 91 1006.2
20260509094510 70 65 0.0 0.0 0.00 0.04 0.01 91 1005.7
20260509093010 70 72 0.0 2.0 0.00 0.04 0.01 90 1005.6
20260509091510 70 187 1.0 3.0 0.00 0.04 0.01 90 1005.3
20260509090022 71 185 1.0 4.0 0.00 0.04 0.01 90 1005.5
20260509084508 71 211 0.0 4.0 0.00 0.05 0.01 91 1005.2
20260509083016 71 131 1.0 10.0 0.00 0.05 0.01 91 1003.6
20260509081505 71 241 2.0 8.0 0.00 0.05 0.01 91 1004.0
20260509080002 71 189 3.0 9.0 0.00 0.05 0.01 91 1004.9
20260509074600 71 207 5.0 11.0 0.00 0.06 0.01 91 1005.9
20260509073106 71 235 4.0 10.0 0.00 0.06 0.01 91 1006.7
20260509071551 70 213 6.0 14.0 0.01 0.06 0.01 92 1007.0
20260509070055 69 191 4.0 10.0 0.01 0.06 0.01 93 1007.4